Home   Weather   Burgdorf   Past weeks

Flag for Switzerland Past Weather in Burgdorf, Bern, Switzerland — Yesterday and Last 2 Weeks

Now
54 °F

Clear.


Feels Like: 52 °F
Forecast: 53 / 72 °F
Wind: 7 mph from East

Location: Bern / Belp

Current Time: Jul 27, 2017 at 12:53:22 am

Latest Report: Jul 27, 2017 at 12:20 am


Visibility: 10 mi

Pressure: 29.98 "Hg (28.10 "Hg at 539m altitude)

Humidity: 94%

Dew Point: 52 °F

Location of BurgdorfLocation

Past Weather in Burgdorf — Graph

°F

Burgdorf Temperature Yesterday

Maximum temperature yesterday: 70 °F (at 5:20 pm)
Minimum temperature yesterday: 55 °F (at 12:20 am)
Average temperature yesterday: 61 °F

High & Low Weather Summary for the Past Weeks

 TemperatureHumidityPressure
High91 °F (Jul 18, 5:20 pm)100% (Jul 11, 11:50 pm)30.30 "Hg (Jul 11, 11:50 pm)
Low48 °F (Jul 16, 3:20 am)31% (Jul 19, 3:50 pm)29.86 "Hg (Jul 21, 3:50 pm)
Average67 °F73%30.05 "Hg
* Reported Jul 11 11:20 pm — Jul 26 11:50 pm, Burgdorf. Weather by CustomWeather, © 2017

Note: Actual official high and low records may vary slightly from our data, if they occured in-between our weather recording intervals... More about our weather records

Advertising

Burgdorf Weather History for the Previous 24 Hours

Scroll right to see more
 ConditionsComfort  
Time TempWeatherWind HumidityBarometerVisibility
11:50 pm
Wed, Jul 26
55 °FClear.6 mph88%29.98 "Hg10 mi
11:20 pm55 °FCool.6 mph88%29.98 "HgN/A
10:50 pm55 °FClear.3 mph88%29.98 "HgN/A
10:20 pm55 °FPartly cloudy.3 mph94%29.98 "HgN/A
9:50 pm57 °FPartly cloudy.2 mph88%29.98 "HgN/A
8:50 pm61 °FBroken clouds.2 mph83%29.98 "HgN/A
8:20 pm64 °FBroken clouds.2 mph64%29.95 "HgN/A
7:50 pm68 °FMild.3 mph56%29.95 "HgN/A
7:20 pm70 °FPassing clouds.8 mph46%29.95 "HgN/A
6:50 pm70 °FScattered clouds.8 mph50%29.95 "HgN/A
6:20 pm70 °FScattered clouds.5 mph57%29.95 "HgN/A
5:50 pm68 °FScattered clouds.6 mph53%29.95 "HgN/A
5:20 pm70 °FPartly sunny.8 mph57%29.95 "HgN/A
4:50 pm66 °FPartly sunny.5 mph60%29.95 "HgN/A
4:20 pm66 °FPartly sunny.9 mph56%29.98 "HgN/A
3:50 pm66 °FPartly sunny.6 mph60%29.98 "HgN/A
3:20 pm66 °FBroken clouds.9 mph56%29.98 "HgN/A
2:50 pm64 °FBroken clouds.9 mph60%29.98 "HgN/A
2:20 pm66 °FBroken clouds.9 mph52%29.98 "HgN/A
1:50 pm66 °FPartly sunny.10 mph56%29.95 "HgN/A
1:20 pm64 °FPartly sunny.12 mph60%29.95 "HgN/A
12:50 pm63 °FPartly sunny.9 mph64%29.95 "HgN/A
12:20 pm64 °FPartly sunny.9 mph64%29.95 "HgN/A
11:50 am63 °FPartly sunny.10 mph68%29.95 "HgN/A
11:20 am64 °FBroken clouds.12 mph64%29.95 "HgN/A
10:50 am63 °FPartly sunny.7 mph68%29.95 "HgN/A
10:20 am61 °FBroken clouds.8 mph83%29.95 "HgN/A
9:50 am61 °FPartly sunny.3 mph83%29.95 "HgN/A
9:20 am59 °FPartly sunny.6 mph88%29.95 "HgN/A
8:50 am57 °FBroken clouds.5 mph94%29.95 "HgN/A
8:20 am57 °FBroken clouds.5 mph94%29.95 "HgN/A
7:50 am55 °FBroken clouds.3 mph94%29.95 "HgN/A
7:20 am55 °FBroken clouds.2 mph94%29.95 "HgN/A
6:50 am55 °FPartly sunny.1 mph94%29.92 "HgN/A
6:20 am55 °FLight rain. Partly sunny.3 mph94%29.92 "Hg4 mi
5:50 am55 °FRain. Passing clouds.2 mph94%29.92 "Hg3 mi
5:20 am55 °FLight rain. Passing clouds.2 mph94%29.92 "HgN/A
4:50 am55 °FLight rain. Partly cloudy.2 mph94%29.92 "HgN/A
4:20 am55 °FLight rain. Partly cloudy.5 mph94%29.92 "HgN/A
3:50 am57 °FPartly cloudy.7 mph82%29.92 "HgN/A
3:20 am57 °FLight rain. Passing clouds.8 mph88%29.92 "HgN/A
2:50 am57 °FPassing clouds.10 mph88%29.92 "HgN/A
2:20 am55 °FLight rain. Partly cloudy.3 mph94%29.92 "HgN/A
1:50 am55 °FLight rain. Overcast.8 mph94%29.92 "HgN/A
1:20 am55 °FLight rain. Overcast.2 mph100%29.92 "HgN/A
12:50 am55 °FLight rain. Partly cloudy.5 mph100%29.95 "HgN/A
12:20 am55 °FPassing clouds.5 mph100%29.95 "HgN/A
Weather by CustomWeather, © 2017

See weather overviewHow to use our weather pages